Weather History for Burns, OR

Change the Weather History Date:

Sunday, September 8, 2013

  Actual Average Record
Temperature  
Mean Temperature 63 °F 59 °F  
Max Temperature 82 °F 78 °F 95 °F (1944)
Min Temperature 43 °F 39 °F 24 °F (2002)
Degree Days  
Heating Degree Days 2 7  
Month to date heating degree days 23 48  
Since 1 July heating degree days 59 185  
Cooling Degree Days 0 0  
Month to date cooling degree days 11 7  
Year to date cooling degree days 362 213  
Growing Degree Days 12 (Base 50)    
Moisture  
Dew Point 45 °F    
Average Humidity 58    
Maximum Humidity 93    
Minimum Humidity 23    
Precipitation  
Precipitation 0.00 in 0.01 in 0.74 in (1985)
Month to date precipitation 0.57 0.11  
Year to date precipitation 4.49 7.09  
Sea Level Pressure  
Sea Level Pressure 30.00 in    
Wind  
Wind Speed 8 mph (WNW)    
Max Wind Speed 18 mph    
Max Gust Speed 24 mph    
Visibility 10 miles    
Events      
T = Trace of Precipitation, MM = Missing Value Source: NWS Daily Summary

Daily Weather History Graph

Daily Weather History Graph

Search for Another Location

Airport:

Trip Planner

Search our weather history database for the weather conditions in past years. The results will help you decide how hot, cold, wet, or windy it might be!

Date:

Astronomy

Sep. 08, 2013 Rise Set
Actual Time 6:27 AM PDT 7:18 PM PDT
Civil Twilight 5:58 AM PDT 7:47 PM PDT
Nautical Twilight 5:24 AM PDT 8:21 PM PDT
Astronomical Twilight 4:47 AM PDT 8:57 PM PDT
Moon 9:58 AM PDT (9/8) 8:48 PM PDT (9/8)
Length of Visible Light 13h 48m
Length of Day
12h 50m
Waxing Crescent, 12% of the Moon is Illuminated
Sep 8
Waxing Crescent
Sep 12
First Quarter
Sep 19
Full
Sep 26
Last Quarter
Oct 4
New

Hourly Weather History & Observations

Time (PDT) Temp. Windchill Dew Point Humidity Pressure Visibility Wind Dir Wind Speed Gust Speed Precip Events Conditions
12:53 AM 54.0 °F - 45.0 °F 72% 30.00 in 10.0 mi WNW 5.8 mph - N/A   Clear
1:53 AM 54.0 °F - 46.0 °F 75% 29.99 in 10.0 mi West 8.1 mph - N/A   Clear
2:53 AM 53.1 °F - 46.0 °F 77% 29.98 in 10.0 mi West 6.9 mph - N/A   Clear
3:53 AM 51.1 °F - 46.0 °F 83% 29.98 in 10.0 mi West 6.9 mph - N/A   Clear
4:53 AM 53.1 °F - 46.9 °F 80% 29.97 in 10.0 mi West 10.4 mph - N/A   Clear
5:53 AM 46.9 °F - 44.1 °F 90% 29.99 in 10.0 mi North 3.5 mph - N/A   Clear
6:53 AM 46.0 °F 44.8 °F 43.0 °F 89% 30.03 in 10.0 mi Variable 3.5 mph - N/A   Clear
7:53 AM 53.1 °F - 45.0 °F 74% 30.05 in 10.0 mi NE 4.6 mph - N/A   Clear
8:53 AM 59.0 °F - 46.9 °F 64% 30.05 in 10.0 mi Calm Calm - N/A   Clear
9:53 AM 66.9 °F - 48.0 °F 51% 30.02 in 10.0 mi Variable 3.5 mph - N/A   Clear
10:53 AM 72.0 °F - 46.0 °F 40% 30.02 in 10.0 mi North 3.5 mph - N/A   Clear
11:53 AM 75.9 °F - 44.1 °F 32% 30.00 in 10.0 mi WNW 10.4 mph 16.1 mph N/A   Clear
12:53 PM 79.0 °F - 44.1 °F 29% 29.99 in 10.0 mi West 10.4 mph - N/A   Partly Cloudy
1:53 PM 80.1 °F - 39.0 °F 23% 29.98 in 10.0 mi WSW 11.5 mph 19.6 mph N/A   Clear
2:53 PM 80.1 °F - 39.9 °F 24% 29.96 in 10.0 mi West 8.1 mph 19.6 mph N/A   Clear
3:53 PM 80.1 °F - 44.1 °F 28% 29.96 in 10.0 mi NNW 9.2 mph 18.4 mph N/A   Clear
4:53 PM 79.0 °F - 45.0 °F 30% 29.95 in 10.0 mi North 12.7 mph - N/A   Clear
5:53 PM 75.0 °F - 45.0 °F 34% 29.97 in 10.0 mi NNW 15.0 mph - N/A   Clear
6:53 PM 70.0 °F - 46.0 °F 42% 29.99 in 10.0 mi NNW 12.7 mph - N/A   Clear
7:53 PM 66.9 °F - 44.1 °F 44% 30.00 in 10.0 mi NW 13.8 mph - N/A   Clear
8:53 PM 64.0 °F - 44.1 °F 48% 30.01 in 10.0 mi WNW 9.2 mph - N/A   Clear
9:53 PM 63.0 °F - 44.1 °F 50% 30.01 in 10.0 mi WNW 9.2 mph - N/A   Clear
10:53 PM 57.9 °F - 44.1 °F 60% 30.02 in 10.0 mi West 6.9 mph - N/A   Clear
11:53 PM 57.0 °F - 44.1 °F 62% 30.01 in 10.0 mi West 10.4 mph - N/A   Clear